Location: Tucson
(32.2217°N, 110.9265°W)
Time: 06:32:40
(UTC-07:00)

Tiros 1 - Visible Passes

Search period start: 25 October 2021 00:00
Search period end: 04 November 2021 00:00
Orbit: 630 x 664 km, 48.4° (Epoch: 24 October)

Date Brightness Start Highest point End Pass type
(mag) Time Alt. Az. Time Alt. Az. Time Alt. Az.
30 Oct 9.8 05:56:28 10° S 06:00:06 22° SE 06:03:45 10° E visible
01 Nov 9.7 05:06:24 10° S 05:09:48 20° SE 05:13:14 10° E visible
02 Nov 8.1 05:30:51 10° SSW 05:35:28 49° SE 05:40:06 10° ENE visible
03 Nov 9.6 04:17:31 14° SSE 04:19:32 18° SE 04:22:42 10° E visible
03 Nov 7.2 05:56:33 10° WSW 06:01:20 69° NW 06:06:08 10° NE visible
